Theta_e
299 300 300 300 300 300 301 301 301 301 302 302 302 302 303 304 305 302 297 302 299 300 302 306 307 303 304 303 298 302 300 299 298 294 293 290 290 294 293 296 295 294 288 285 288 283 285 304 300 294 297 301 302 302
299 299 299 299 300 300 300 301 301 301 301 302 302 302 301 303 304 303 296 302 308 300 296 304 304 306 306 307 303 305 303 301 302 297 297 297 293 295 293 287 301 291 295 292 293 292 303 305 302 306 305 303 302 302
298 298 299 299 299 299 300 300 300 301 301 301 302 301 301 303 303 302 298 300 302 296 295 299 299 303 308 307 310 302 302 307 305 307 302 299 293 297 290 292 296 300 303 296 296 300 302 304 305 306 306 305 305 304
297 298 298 298 299 299 299 300 300 300 301 301 301 301 301 302 303 303 297 300 299 297 288 290 301 300 305 310 311 311 308 310 309 307 301 299 295 302 295 297 295 299 302 298 296 300 303 304 304 305 305 305 305 305
297 297 298 298 298 299 299 299 299 300 301 301 301 301 301 302 303 303 300 301 303 299 287 289 298 299 306 307 308 310 309 307 305 300 299 297 302 298 299 297 294 300 298 295 292 302 301 302 304 306 304 303 304 303
297 297 297 297 298 298 299 299 299 300 300 301 301 301 302 302 301 300 291 302 304 303 292 286 292 295 303 304 307 306 308 306 305 302 300 302 306 300 292 289 300 302 303 304 301 305 305 305 304 305 303 304 303 302
297 296 297 297 297 298 298 299 299 300 300 301 301 301 302 301 299 294 289 298 302 303 289 285 287 292 298 304 302 302 304 303 302 300 298 299 301 302 289 290 300 303 304 303 306 306 302 303 301 304 304 304 302 301
296 296 296 297 297 297 298 298 299 300 300 300 300 300 301 301 299 296 300 302 303 298 295 285 284 288 298 293 291 300 297 300 299 297 299 297 297 296 287 298 300 301 303 303 303 303 303 303 302 301 302 300 299 298
296 296 296 296 296 297 298 298 299 299 300 300 300 300 298 295 291 295 301 302 301 296 286 287 285 284 296 293 295 296 298 289 298 292 296 297 294 288 296 298 300 301 300 300 302 302 302 301 300 300 297 297 296 296
295 295 296 296 296 297 297 298 298 299 300 300 297 291 285 291 299 300 294 289 289 291 294 288 292 286 294 292 289 290 294 288 285 292 297 289 289 297 300 301 301 301 303 302 297 296 298 298 296 296 296 297 297 297
294 294 295 295 296 296 297 298 298 299 299 293 286 285 293 298 293 287 284 284 284 284 289 293 291 289 296 287 288 293 288 289 284 288 287 284 284 292 300 300 300 301 300 299 299 299 298 298 297 296 296 297 296 296
294 295 295 295 296 295 296 298 298 296 294 292 293 295 292 286 284 283 283 284 284 284 291 291 293 292 293 296 289 292 286 288 284 291 284 281 287 296 298 299 300 299 299 298 299 299 299 298 298 297 296 295 296 296
295 296 296 295 295 296 297 298 298 298 298 295 291 285 284 284 279 280 278 281 283 287 293 294 290 292 293 294 289 289 284 282 289 279 281 283 292 295 297 298 299 299 298 298 298 299 298 297 298 296 295 296 296 297
295 295 295 295 296 296 297 298 298 298 293 286 284 280 280 279 279 283 283 284 287 292 294 293 290 289 290 287 287 284 287 286 278 277 279 284 292 295 297 298 297 297 297 297 296 297 297 297 296 296 292 291 287 287
294 294 295 296 296 297 297 298 298 297 291 284 284 278 280 284 285 287 290 289 295 298 295 291 290 289 286 285 286 285 282 280 282 281 284 289 294 296 296 296 296 296 294 295 296 295 290 290 290 289 288 290 292 286
297 297 296 297 296 297 297 297 296 294 290 286 285 283 283 283 284 286 289 291 298 297 295 292 287 285 283 284 282 281 281 280 282 284 290 293 294 295 295 296 296 297 296 296 296 295 293 288 289 292 292 291 287 287
297 293 297 297 297 297 298 294 289 285 285 285 283 286 284 286 286 289 293 295 299 294 287 286 283 284 286 281 281 284 281 283 286 288 293 294 294 295 296 296 295 297 296 296 296 296 294 294 292 293 291 291 289 288
293 296 298 298 297 296 292 291 287 285 282 284 282 285 286 287 286 289 293 297 296 292 290 287 288 283 280 281 281 284 288 290 292 292 293 294 295 296 296 296 296 296 295 294 294 293 293 291 291 290 292 292 291 289
294 296 297 298 295 288 285 287 290 281 282 287 287 288 288 289 291 294 296 298 296 294 291 288 286 283 283 286 286 287 288 289 289 291 293 295 296 296 296 296 295 294 294 294 294 292 292 293 291 291 291 291 290 289
297 297 297 297 296 290 285 286 292 285 284 286 288 286 287 288 291 293 293 293 293 291 285 285 285 287 288 289 292 292 292 293 291 288 288 289 293 295 294 293 292 294 293 294 293 289 291 290 291 290 290 290 289 287
296 296 296 295 292 293 289 288 285 286 287 286 288 288 285 287 287 286 288 294 288 285 284 290 290 291 295 295 297 297 295 295 292 290 289 288 290 293 292 292 292 291 289 289 289 289 287 289 289 290 286 287 284 283
291 296 293 294 290 291 289 290 286 289 286 287 288 288 285 284 284 285 291 286 286 287 289 289 291 293 293 294 295 296 296 295 295 291 290 290 289 289 289 290 290 289 289 288 289 288 289 289 290 290 285 287 282 283
295 293 290 290 285 285 284 291 285 287 283 284 287 284 284 284 286 291 285 287 288 292 294 293 294 295 294 295 295 295 295 295 292 290 291 290 291 290 290 290 289 287 286 289 289 288 287 287 287 288 286 288 286 284
295 288 284 284 284 282 287 284 287 285 286 284 284 282 284 284 288 285 283 285 287 291 292 294 294 292 293 293 291 291 292 293 293 291 291 289 288 288 289 288 289 289 289 289 289 287 286 285 285 286 286 287 287 285
284 282 284 281 285 281 280 281 283 283 280 283 282 282 283 286 282 282 282 285 288 288 288 292 291 291 288 289 290 291 294 292 289 287 289 290 288 288 288 288 289 290 290 285 285 285 286 287 287 288 286 286 286 286
279 283 281 280 280 280 281 277 279 280 282 281 282 284 285 283 280 280 284 288 287 288 287 287 288 288 289 291 289 288 290 293 292 288 289 291 289 286 284 283 283 287 290 286 287 286 287 288 286 286 285 286 286 286
277 279 285 289 287 285 282 283 284 282 280 279 281 282 282 278 278 285 288 290 289 290 291 292 291 289 289 289 289 289 289 289 289 288 289 289 289 289 287 286 285 285 288 286 286 286 287 288 287 287 286 286 286 286
284 285 279 283 283 284 280 281 280 280 283 284 284 280 279 280 282 286 286 289 290 291 290 289 290 290 289 288 287 285 284 282 284 285 285 286 287 286 285 286 286 286 285 287 287 286 287 288 287 287 286 286 286 286
284 285 285 281 283 284 283 282 283 285 287 286 282 281 283 285 286 287 286 286 288 289 286 285 286 286 286 285 284 286 286 286 284 280 280 284 284 285 284 285 284 285 285 285 286 285 285 286 286 286 286 286 286 286
283 287 283 282 280 280 282 283 284 285 286 286 287 286 285 283 285 288 287 288 287 285 285 285 285 285 285 285 285 284 284 285 285 285 285 285 284 283 285 285 285 285 285 285 285 283 284 285 284 285 285 285 285 285
286 285 282 281 279 281 283 284 285 284 285 285 286 283 282 283 283 285 285 285 285 285 285 284 284 285 285 284 285 284 284 284 284 283 282 283 284 285 284 285 285 285 285 285 285 284 283 284 285 285 284 283 283 284
285 283 280 279 279 282 285 284 283 282 284 283 282 284 284 284 282 282 282 285 285 284 284 285 285 284 284 284 284 284 284 284 283 283 283 283 283 283 283 283 284 284 284 285 285 285 284 284 284 284 284 283 283 283
283 283 282 281 281 281 283 284 282 282 283 282 282 283 283 282 278 281 281 283 284 285 285 285 285 285 285 285 284 283 283 283 283 283 282 282 282 282 282 284 284 284 283 284 284 284 284 284 284 284 283 283 282 281
Wind_Speed
12 12 12 13 14 14 13 13 12 13 14 12 12 11 12 11 13 8 6 3 8 4 3 2 7 14 11 12 10 8 5 2 2 5 5 5 4 6 5 10 9 7 7 4 3 3 7 6 2 10 8 4 7 7
12 12 13 13 13 14 14 12 12 12 15 12 13 11 13 11 12 11 5 4 9 4 2 2 2 1 2 3 7 9 6 6 5 5 4 4 4 5 7 6 11 7 8 7 9 8 4 4 5 5 7 7 4 7
13 13 13 14 15 15 15 14 12 11 12 13 12 10 12 14 13 10 2 5 6 4 3 2 3 3 4 4 4 7 1 5 3 1 4 3 3 5 8 6 7 5 8 5 7 7 6 7 5 7 7 7 7 6
13 13 13 14 15 15 15 15 12 12 12 11 11 7 14 13 12 6 4 3 5 3 3 1 1 3 2 3 3 3 7 5 3 3 4 2 2 3 5 6 6 7 13 7 3 2 7 7 7 7 7 7 5 4
13 13 13 13 14 14 15 14 12 12 12 11 12 9 16 10 10 8 5 5 4 5 4 2 3 1 4 3 4 1 4 6 3 3 3 3 4 3 2 4 4 5 8 8 6 7 7 5 7 8 7 3 3 6
14 13 12 13 13 13 13 13 13 12 11 11 12 13 15 6 8 2 4 3 6 5 4 2 2 3 4 3 11 4 2 3 3 4 1 1 3 2 4 3 3 4 5 8 6 8 8 8 6 6 7 7 6 6
14 14 14 13 13 13 12 12 13 11 11 10 8 7 9 4 1 3 4 3 12 3 5 1 3 3 1 4 2 3 2 3 3 3 3 0 1 2 2 3 4 3 1 4 8 10 6 7 6 7 7 6 8 6
15 15 13 12 12 12 11 11 11 10 10 8 4 4 5 5 6 5 3 4 7 2 3 4 2 1 1 3 2 1 4 3 5 3 2 3 1 2 2 6 2 3 4 6 7 8 8 8 8 7 7 6 8 6
16 16 14 12 12 12 11 11 10 9 10 6 2 2 1 2 3 2 4 2 4 2 4 3 6 5 3 3 2 3 4 4 2 1 2 3 2 5 6 7 6 6 3 5 6 7 8 8 7 6 9 9 8 4
17 15 15 13 13 11 11 10 10 10 9 7 2 0 3 3 8 4 3 2 3 2 3 2 4 4 6 4 3 4 3 3 3 3 3 2 4 5 8 6 6 5 7 7 5 3 5 4 9 8 9 8 7 4
17 20 17 16 15 13 12 11 10 11 9 1 2 3 2 5 0 1 3 3 2 3 3 4 6 11 3 5 4 4 4 3 3 4 5 3 6 7 11 6 5 5 7 7 8 6 7 10 9 9 8 7 6 2
20 20 18 17 17 16 14 13 12 9 3 5 3 2 2 2 2 4 3 2 2 3 3 9 11 5 5 5 5 3 3 2 3 3 3 5 6 7 13 12 9 7 7 8 6 7 9 9 8 8 8 7 4 2
19 19 18 17 18 17 17 13 13 11 10 2 3 2 2 3 5 5 6 3 4 4 7 15 10 5 4 4 4 4 5 2 5 3 6 7 3 7 10 11 10 8 10 8 7 10 10 9 9 8 7 4 3 3
18 18 19 22 22 20 17 15 15 12 4 4 6 7 4 4 5 6 2 2 5 6 14 12 7 5 3 4 4 6 4 5 3 6 11 4 8 9 7 9 12 13 11 11 9 9 10 10 8 6 6 6 4 3
23 26 27 26 26 22 19 17 19 4 3 3 2 5 7 5 3 4 4 4 3 13 12 7 5 6 3 5 2 6 6 6 8 7 4 7 8 10 11 13 13 12 9 9 9 9 9 9 8 5 2 3 3 3
23 16 11 24 32 26 23 18 10 2 1 3 3 4 4 1 4 3 4 4 12 12 5 5 5 5 2 5 5 7 8 8 5 4 4 5 7 9 8 9 8 9 9 7 8 8 8 8 8 6 3 5 4 6
15 2 17 25 28 27 27 5 2 4 3 3 4 3 1 1 3 4 4 7 13 11 4 4 7 6 5 4 6 7 7 6 5 2 3 7 8 10 9 9 8 8 8 8 7 8 7 6 6 5 5 5 6 7
1 8 25 28 24 22 3 3 4 4 5 5 3 3 3 2 2 5 6 11 10 6 3 3 5 4 6 8 4 4 3 3 4 4 5 6 8 10 9 9 8 9 8 7 7 7 7 8 7 5 5 6 4 5
8 16 28 32 16 5 4 2 2 5 5 2 2 2 2 3 2 6 5 8 5 3 5 3 4 3 4 3 6 4 4 5 5 3 5 7 10 11 11 9 8 7 7 6 6 5 4 6 5 5 5 4 4 5
24 29 32 28 14 4 4 3 3 3 3 2 2 3 3 2 7 5 3 1 4 4 4 1 2 2 4 3 3 5 4 5 6 6 5 4 5 9 9 7 6 7 6 5 4 5 3 2 3 4 4 5 4 5
18 23 30 18 4 2 4 4 3 3 1 2 2 2 2 2 2 2 1 1 5 2 2 1 2 2 5 5 5 6 6 7 5 5 5 6 4 7 6 5 6 4 3 4 5 4 5 5 5 5 4 4 4 3
5 29 10 8 1 2 1 2 6 5 2 1 2 2 1 0 2 1 2 5 3 0 3 3 2 4 6 7 6 6 9 11 8 7 8 8 5 4 4 4 5 4 5 5 5 5 6 5 5 5 3 3 3 3
26 12 5 2 4 6 3 3 4 4 4 4 2 2 1 2 1 2 4 2 1 2 3 4 6 7 8 7 8 9 9 11 6 6 6 5 5 5 4 4 5 5 4 5 4 4 4 5 5 4 3 5 4 2
12 6 6 8 5 4 3 3 2 3 3 1 2 3 2 1 1 3 3 1 1 1 3 6 4 5 5 7 4 4 4 5 5 4 5 6 4 3 4 4 4 4 5 4 4 4 4 3 3 3 4 5 4 3
7 1 2 3 3 5 4 4 4 3 3 2 3 2 1 1 3 2 4 1 2 2 2 4 4 5 5 3 3 3 3 5 5 4 3 4 3 2 1 2 4 5 4 2 3 3 3 3 4 4 4 4 5 4
4 4 4 4 3 6 4 5 4 4 4 3 3 1 2 3 3 2 2 7 4 4 4 5 5 4 3 4 4 3 3 3 5 4 0 3 4 4 4 3 2 5 1 3 3 4 4 4 4 6 5 6 6 6
3 3 2 3 4 6 6 3 4 5 5 4 3 2 2 4 4 1 2 3 4 2 3 4 5 5 5 5 5 4 4 6 6 4 3 4 5 4 4 4 0 3 4 4 2 2 4 4 4 6 6 4 5 6
3 4 4 3 6 4 6 5 3 3 3 3 4 4 5 4 2 2 2 1 5 6 8 7 6 6 7 5 4 3 4 2 3 3 3 4 6 5 6 4 3 4 3 4 3 2 3 5 5 4 4 4 4 5
3 2 6 9 6 6 5 2 3 3 4 4 5 3 3 3 3 3 2 2 4 6 6 6 5 4 6 5 5 6 5 4 4 5 4 2 3 3 4 3 3 3 3 3 5 3 4 4 4 4 5 4 4 4
2 2 3 3 5 4 2 2 2 3 4 3 3 5 5 4 5 4 5 6 6 6 6 6 4 3 4 3 3 4 5 5 4 1 2 2 1 2 1 2 2 3 2 3 2 2 3 1 2 2 4 4 4 5
3 3 5 6 4 4 3 3 2 3 5 6 7 5 5 4 2 5 5 3 4 6 6 5 5 4 4 3 3 3 3 2 4 5 3 2 1 2 3 3 3 2 2 3 3 2 1 0 1 4 4 5 6 6
3 4 4 5 3 3 4 4 4 4 4 4 4 3 3 3 4 2 3 3 4 5 3 4 4 4 3 3 3 3 5 3 3 3 3 2 2 2 3 4 4 4 4 4 3 3 4 4 3 4 5 7 7 7
4 6 8 5 3 3 0 2 4 3 4 3 3 3 3 2 4 2 0 2 1 1 3 3 4 4 5 5 4 4 3 2 5 4 4 4 5 5 4 4 3 3 5 3 3 4 4 4 4 5 6 7 9 10
Wind_Direction
240 247 251 254 256 257 258 261 265 274 273 277 268 269 282 261 250 216 281 260 266 282 68 178 186 191 174 194 169 158 112 165 194 127 153 195 152 193 134 158 154 157 144 176 133 110 262 209 111 145 201 135 119 120
245 252 259 262 261 261 262 262 259 267 277 273 265 270 306 264 264 183 249 243 253 252 145 291 127 147 354 194 143 175 152 150 195 124 185 156 149 162 151 180 163 194 174 177 163 202 215 133 159 151 115 122 120 116
249 255 259 261 261 260 261 263 257 258 269 281 254 273 296 276 262 200 279 307 254 125 250 176 87 45 6 359 339 135 130 166 186 181 157 195 170 138 169 207 122 200 160 171 112 226 190 195 149 153 139 135 113 116
248 255 259 261 263 262 261 261 257 261 265 275 245 274 288 268 297 199 227 212 276 75 147 100 276 95 130 262 62 351 116 114 88 54 80 115 199 156 193 163 134 183 168 167 166 103 105 128 137 144 126 126 134 126
245 252 257 260 266 263 258 258 259 255 261 270 243 262 281 253 277 241 256 259 249 259 142 194 152 45 124 155 129 68 107 107 105 109 112 191 288 60 11 72 178 166 161 169 210 175 137 193 151 129 122 122 71 88
247 252 257 259 263 265 253 261 262 248 248 257 244 244 261 220 309 222 271 224 239 208 98 120 302 49 59 125 137 52 207 133 126 122 125 272 287 76 108 167 227 146 134 146 167 154 144 139 114 98 104 99 89 74
251 250 251 259 260 258 254 265 264 245 244 251 233 239 237 217 187 224 200 310 336 295 100 74 19 355 294 110 100 127 43 89 120 126 126 305 179 146 88 168 206 174 129 118 161 126 126 150 151 113 118 93 76 48
247 246 250 258 260 255 259 262 256 247 252 256 174 255 261 279 279 244 211 274 299 60 95 119 89 39 286 100 81 180 87 16 27 93 95 157 335 83 174 229 300 349 189 164 152 131 148 129 104 97 97 81 70 62
245 240 241 249 252 258 258 256 247 240 235 188 220 121 335 231 256 328 45 24 282 148 137 173 142 153 195 103 107 55 67 73 6 123 160 96 166 228 198 177 193 229 201 146 119 123 121 122 141 119 99 83 87 57
242 236 235 241 241 243 247 246 232 226 197 166 83 274 279 231 314 330 2 68 348 283 190 141 107 143 137 112 85 84 95 138 124 219 136 141 243 213 190 198 184 206 203 187 161 177 172 150 130 121 116 106 97 94
237 239 237 232 236 233 242 230 219 204 155 162 169 231 297 355 23 12 221 191 175 189 180 138 147 123 175 101 114 113 136 162 123 227 128 218 255 204 200 205 172 169 145 125 129 136 112 141 136 129 116 115 120 140
230 233 231 231 226 230 236 221 210 189 157 166 129 79 7 357 252 229 192 133 213 204 201 139 148 123 105 110 96 104 111 110 135 141 102 250 243 171 186 188 193 183 168 149 147 147 138 133 131 124 127 134 131 181
234 231 230 225 230 232 215 210 199 146 123 86 221 178 189 184 231 223 167 154 221 190 173 152 135 122 75 92 97 106 102 167 106 74 230 233 259 165 177 192 188 161 148 152 157 142 130 122 118 125 130 128 114 91
235 233 226 219 224 222 205 206 193 168 130 197 190 175 221 195 241 221 245 167 212 157 145 138 112 102 133 84 129 100 134 105 147 193 231 221 218 184 161 161 148 155 149 148 138 126 126 130 135 126 120 113 111 261
252 247 236 220 213 202 202 200 182 193 163 239 200 184 217 231 283 266 280 295 149 138 137 117 60 87 82 100 124 116 145 197 210 229 217 194 188 155 147 152 148 148 141 137 134 138 134 128 130 142 170 174 199 201
244 227 207 191 193 196 192 183 179 128 267 246 229 232 216 261 261 224 231 257 138 143 127 77 100 97 139 146 135 186 163 214 237 200 212 171 156 151 133 130 129 135 134 127 123 131 137 144 153 178 178 213 204 202
168 214 164 167 173 172 167 134 115 158 200 239 258 274 292 193 267 286 299 185 144 159 152 130 117 178 123 153 195 178 197 202 192 193 149 150 138 136 127 121 122 124 124 125 135 150 168 149 135 150 206 249 214 208
141 149 149 154 149 156 57 202 152 147 219 232 237 215 231 149 309 290 293 154 165 163 108 153 130 146 169 174 199 193 154 125 126 141 137 122 113 117 119 117 116 115 118 121 123 126 128 147 165 194 214 241 230 195
159 151 155 155 142 91 135 141 175 180 209 234 180 244 189 275 233 244 297 191 129 110 89 44 136 158 188 194 140 148 149 137 136 122 113 113 116 123 122 116 112 105 117 129 122 140 165 166 178 192 204 195 212 220
163 156 157 155 147 140 106 135 207 173 181 209 203 179 113 28 316 109 211 39 85 90 68 64 141 187 154 168 131 135 133 124 115 92 67 55 93 100 107 113 120 127 116 129 133 127 141 161 225 217 213 211 213 230
155 159 154 153 203 180 128 167 114 141 200 280 93 59 40 36 302 102 314 286 69 90 83 13 76 71 68 75 87 100 98 96 90 112 135 93 73 102 107 115 115 109 128 162 167 203 194 214 229 230 219 225 219 181
141 145 136 182 145 213 134 246 137 142 155 166 82 91 104 323 266 86 359 43 60 91 133 126 74 78 73 67 76 78 97 88 86 87 82 99 92 94 107 140 125 158 164 177 180 202 223 222 223 230 210 230 197 176
125 126 100 131 179 175 163 272 103 133 138 149 159 103 66 291 329 152 73 289 21 35 93 90 89 81 93 85 76 73 91 100 93 97 106 125 137 145 144 161 159 160 185 232 206 212 229 229 234 219 186 187 179 168
97 85 153 189 190 119 125 111 98 85 68 93 104 116 130 131 30 52 84 138 213 75 93 119 103 87 65 74 87 107 104 104 112 115 127 117 133 203 181 193 193 202 195 197 198 221 235 242 266 169 179 206 206 165
106 148 121 107 161 112 102 94 109 118 114 81 71 93 47 118 71 75 140 188 109 142 159 116 109 115 118 120 115 112 117 119 141 160 219 143 138 76 296 244 236 228 210 165 240 216 256 225 248 219 180 173 218 216
133 175 179 132 169 112 139 124 140 119 109 88 79 144 241 100 87 206 173 160 172 161 168 156 140 119 120 147 149 147 218 172 122 122 188 142 162 169 193 196 238 288 288 151 170 210 220 241 208 220 218 198 200 203
91 93 184 201 107 103 92 61 82 96 97 136 180 152 92 129 179 148 62 34 112 122 112 119 131 141 152 107 87 72 52 52 80 119 106 84 86 86 104 114 165 250 3 27 49 209 219 249 231 239 236 212 192 202
41 351 83 92 79 77 108 97 94 109 151 162 123 178 185 169 104 41 120 106 104 93 81 62 53 80 89 89 90 104 76 79 115 119 75 49 52 60 62 58 43 4 350 335 298 270 266 253 248 224 214 221 209 196
58 31 80 91 81 58 51 79 189 180 140 146 157 133 91 52 357 45 15 62 76 83 81 81 55 68 79 74 66 63 53 41 67 69 59 330 327 343 24 23 6 357 341 320 298 255 262 250 219 208 217 206 181 156
116 126 100 57 62 84 72 298 41 333 20 43 93 92 73 48 1 356 45 57 82 95 103 102 92 78 89 93 88 69 48 53 50 116 206 232 27 323 319 31 355 331 320 308 293 313 296 230 112 97 118 126 134 132
28 55 66 45 58 14 5 347 3 63 44 36 31 69 96 117 63 23 33 25 83 104 97 92 80 64 93 104 124 143 136 109 91 73 55 1 323 335 358 2 340 313 282 262 227 234 257 71 135 136 143 142 143 141
40 55 106 95 69 338 344 35 33 54 45 59 61 86 104 104 86 74 15 15 91 120 121 138 139 145 144 125 105 89 86 106 108 94 63 354 328 340 329 306 297 299 289 267 240 220 207 199 171 166 160 151 143 137
81 77 91 102 113 113 10 87 72 80 60 73 62 59 49 92 117 117 154 7 19 94 117 94 87 90 95 91 96 96 93 95 96 77 35 347 317 308 296 282 277 274 274 260 247 238 217 192 173 156 138 130 120 117